Location: Roland
(31.1349°N, 85.4372°W)
Time: 19:41:13
(UTC+00:00)

SR - Pass Details

Date: 20 April 2021
Orbit: 573 x 882 km, 66.7° (Epoch: 13 May)

Event Time Altitude Azimuth Distance (km) Brightness Sun altitude
Rises 11:25:52 0° 171° (S) 3,193 ? 2.9°
Reaches altitude 10° 11:28:35 10° 157° (SSE) 2,325 ? 3.5°
Maximum altitude 11:32:49 24° 105° (ESE) 1,640 ? 4.4°
Drops below altitude 10° 11:37:16 10° 54° (NE) 2,472 ? 5.3°
Sets 11:40:14 0° 41° (NE) 3,444 ? 5.9°
